• In Hungary
  • List of Countries
  • For 7 days
  • Water Temperature
  • Satellite Maps
  • Weather Map
  • News
  • Weather Widgets
  • user-avatar
    Login

    Hourly Weather Albany

    Today, 18 October, Wednesday

    Time Temperature Precipitation Wind Pressure Humidity
    00:00 +8°C° 0 mm 2 mps 765 mmHg 70%
    01:00 +7°C° 0 mm 2 mps 765 mmHg 76%
    02:00 +7°C° 0 mm 2 mps 765 mmHg 79%
    03:00 +7°C° 0 mm 2 mps 765 mmHg 81%
    04:00 +7°C° 0 mm 2 mps 765 mmHg 84%
    05:00 +9°C° 0 mm 1 mps 765 mmHg 85%
    06:00 +9°C° 0 mm 1 mps 766 mmHg 86%
    07:00 +9°C° 0 mm 2 mps 766 mmHg 82%
    08:00 +12°C° 0 mm 2 mps 766 mmHg 75%
    09:00 +15°C° 0 mm 2 mps 766 mmHg 68%
    10:00 +18°C° 0 mm 2 mps 766 mmHg 61%
    11:00 +19°C° 0 mm 2 mps 766 mmHg 57%
    12:00 +22°C° 0 mm 1 mps 765 mmHg 52%
    13:00 +23°C° 0 mm 1 mps 765 mmHg 48%
    14:00 +23°C° 0 mm 1 mps 765 mmHg 52%
    15:00 +22°C° 0 mm 1 mps 765 mmHg 56%
    16:00 +22°C° 0 mm 1 mps 765 mmHg 60%
    17:00 +19°C° 0 mm 1 mps 765 mmHg 66%
    18:00 +16°C° 0 mm 1 mps 765 mmHg 73%
    19:00 +14°C° 0 mm 1 mps 766 mmHg 79%
    20:00 +14°C° 0 mm 1 mps 766 mmHg 81%
    21:00 +13°C° 0 mm 1 mps 766 mmHg 83%
    22:00 +13°C° 0 mm 1 mps 766 mmHg 84%
    23:00 +12°C° 0 mm 1 mps 766 mmHg 86%

    Tomorrow, 19 October, Thursday

    Time Temperature Precipitation Wind Pressure Humidity
    00:00 +12°C° 0 mm 1 mps 766 mmHg 88%
    01:00 +12°C° 0 mm 1 mps 765 mmHg 90%
    02:00 +11°C° 0 mm 1 mps 765 mmHg 90%
    03:00 +11°C° 0 mm 1 mps 765 mmHg 91%
    04:00 +11°C° 0 mm 1 mps 765 mmHg 91%
    05:00 +11°C° 0 mm 1 mps 765 mmHg 90%
    06:00 +11°C° 0 mm 1 mps 765 mmHg 88%
    07:00 +10°C° 0 mm 2 mps 764 mmHg 87%
    08:00 +14°C° 0 mm 2 mps 764 mmHg 74%
    09:00 +17°C° 0 mm 3 mps 764 mmHg 60%
    10:00 +20°C° 0 mm 4 mps 763 mmHg 47%
    11:00 +21°C° 0 mm 4 mps 763 mmHg 44%
    12:00 +22°C° 0 mm 4 mps 762 mmHg 41%
    13:00 +23°C° 0 mm 5 mps 761 mmHg 38%
    14:00 +22°C° 0 mm 4 mps 761 mmHg 42%
    15:00 +21°C° 0 mm 4 mps 760 mmHg 46%
    16:00 +21°C° 0 mm 3 mps 760 mmHg 50%
    17:00 +19°C° 0 mm 3 mps 760 mmHg 55%
    18:00 +17°C° 0 mm 3 mps 760 mmHg 61%
    19:00 +16°C° 0 mm 3 mps 761 mmHg 66%
    20:00 +14°C° 0 mm 3 mps 761 mmHg 69%
    21:00 +14°C° 0 mm 3 mps 761 mmHg 72%
    22:00 +14°C° 0 mm 2 mps 761 mmHg 75%
    23:00 +14°C° 0 mm 2 mps 761 mmHg 80%

    Day after tomorrow, 20 October, Friday

    Time Temperature Precipitation Wind Pressure Humidity
    00:00 +13°C° 0 mm 2 mps 761 mmHg 85%
    01:00 +13°C° 0 mm 2 mps 762 mmHg 91%
    02:00 +12°C° 0 mm 2 mps 762 mmHg 89%
    03:00 +12°C° 0 mm 2 mps 762 mmHg 88%
    04:00 +10°C° 0 mm 2 mps 762 mmHg 87%
    05:00 +10°C° 0 mm 2 mps 763 mmHg 83%
    06:00 +10°C° 0 mm 2 mps 763 mmHg 78%
    07:00 +10°C° 0 mm 2 mps 763 mmHg 74%
    08:00 +11°C° 0 mm 3 mps 764 mmHg 63%
    09:00 +13°C° 0 mm 3 mps 764 mmHg 52%
    10:00 +15°C° 0 mm 4 mps 764 mmHg 42%
    11:00 +17°C° 0 mm 4 mps 764 mmHg 39%
    12:00 +19°C° 0 mm 4 mps 763 mmHg 36%
    13:00 +20°C° 0 mm 4 mps 763 mmHg 34%
    14:00 +19°C° 0 mm 4 mps 763 mmHg 37%
    15:00 +19°C° 0 mm 3 mps 763 mmHg 40%
    16:00 +19°C° 0 mm 3 mps 763 mmHg 43%
    17:00 +17°C° 0 mm 2 mps 764 mmHg 47%
    18:00 +15°C° 0 mm 2 mps 765 mmHg 52%
    19:00 +13°C° 0 mm 2 mps 765 mmHg 56%
    20:00 +12°C° 0 mm 2 mps 766 mmHg 58%
    21:00 +12°C° 0 mm 1 mps 766 mmHg 60%
    22:00 +11°C° 0 mm 1 mps 767 mmHg 62%
    23:00 +11°C° 0 mm 1 mps 767 mmHg 63%

    21 October, Saturday

    Time Temperature Precipitation Wind Pressure Humidity
    00:00 +11°C° 0 mm 1 mps 767 mmHg 63%
    01:00 +10°C° 0 mm 1 mps 767 mmHg 64%
    02:00 +10°C° 0 mm 1 mps 767 mmHg 65%
    03:00 +10°C° 0 mm 1 mps 767 mmHg 65%
    04:00 +10°C° 0 mm 1 mps 767 mmHg 66%
    05:00 +10°C° 0 mm 1 mps 768 mmHg 66%
    06:00 +11°C° 0 mm 1 mps 768 mmHg 66%
    07:00 +11°C° 0 mm 1 mps 768 mmHg 66%
    08:00 +14°C° 0 mm 1 mps 768 mmHg 58%
    09:00 +16°C° 0 mm 0 mps 768 mmHg 50%
    10:00 +20°C° 0 mm 0 mps 768 mmHg 42%
    11:00 +23°C° 0 mm 1 mps 768 mmHg 40%
    12:00 +24°C° 0 mm 1 mps 768 mmHg 38%
    13:00 +25°C° 0 mm 1 mps 767 mmHg 35%
    14:00 +24°C° 0 mm 1 mps 767 mmHg 41%
    15:00 +23°C° 0 mm 1 mps 767 mmHg 46%
    16:00 +22°C° 0 mm 1 mps 767 mmHg 52%
    17:00 +20°C° 0 mm 1 mps 767 mmHg 56%
    18:00 +18°C° 0 mm 1 mps 768 mmHg 61%
    19:00 +15°C° 0 mm 1 mps 768 mmHg 66%
    20:00 +15°C° 0 mm 1 mps 768 mmHg 67%
    21:00 +14°C° 0 mm 1 mps 768 mmHg 69%
    22:00 +14°C° 0 mm 1 mps 769 mmHg 71%
    23:00 +13°C° 0 mm 1 mps 768 mmHg 72%

    22 October, Sunday

    Time Temperature Precipitation Wind Pressure Humidity
    00:00 +13°C° 0 mm 1 mps 768 mmHg 72%
    01:00 +13°C° 0 mm 1 mps 768 mmHg 73%
    02:00 +13°C° 0 mm 1 mps 768 mmHg 74%
    03:00 +12°C° 0 mm 1 mps 768 mmHg 74%
    04:00 +12°C° 0 mm 1 mps 768 mmHg 74%
    05:00 +12°C° 0 mm 1 mps 768 mmHg 74%
    06:00 +12°C° 0 mm 1 mps 768 mmHg 75%
    07:00 +13°C° 0 mm 1 mps 769 mmHg 75%
    08:00 +15°C° 0 mm 1 mps 768 mmHg 67%
    09:00 +18°C° 0 mm 2 mps 768 mmHg 59%
    10:00 +20°C° 0 mm 2 mps 768 mmHg 52%
    11:00 +23°C° 0 mm 2 mps 767 mmHg 48%
    12:00 +24°C° 0 mm 3 mps 767 mmHg 44%
    13:00 +25°C° 0 mm 3 mps 766 mmHg 41%
    14:00 +24°C° 0 mm 3 mps 766 mmHg 45%
    15:00 +24°C° 0 mm 2 mps 766 mmHg 49%
    16:00 +23°C° 0 mm 2 mps 766 mmHg 53%
    17:00 +20°C° 0 mm 2 mps 766 mmHg 58%
    18:00 +18°C° 0 mm 2 mps 766 mmHg 64%
    19:00 +16°C° 0 mm 2 mps 766 mmHg 69%
    20:00 +16°C° 0 mm 2 mps 766 mmHg 72%
    21:00 +15°C° 0 mm 2 mps 766 mmHg 75%
    22:00 +15°C° 0 mm 2 mps 766 mmHg 78%
    23:00 +14°C° 0 mm 2 mps 765 mmHg 82%

    23 October, Monday

    Time Temperature Precipitation Wind Pressure Humidity
    00:00 +14°C° 0 mm 2 mps 765 mmHg 86%
    01:00 +14°C° 0 mm 2 mps 765 mmHg 90%
    02:00 +13°C° 0 mm 2 mps 764 mmHg 92%
    03:00 +13°C° 0 mm 2 mps 764 mmHg 93%
    04:00 +13°C° 0 mm 2 mps 764 mmHg 95%
    05:00 +13°C° 0 mm 2 mps 764 mmHg 96%
    06:00 +14°C° 0 mm 2 mps 764 mmHg 96%
    07:00 +14°C° 0 mm 2 mps 763 mmHg 97%
    08:00 +16°C° 0 mm 2 mps 763 mmHg 88%
    09:00 +18°C° 0 mm 3 mps 763 mmHg 79%
    10:00 +20°C° 0 mm 3 mps 763 mmHg 71%
    11:00 +21°C° 0 mm 3 mps 762 mmHg 66%
    12:00 +24°C° 0 mm 3 mps 761 mmHg 62%
    13:00 +25°C° 0 mm 3 mps 761 mmHg 57%
    14:00 +24°C° 0 mm 3 mps 760 mmHg 61%
    15:00 +24°C° 0 mm 3 mps 760 mmHg 65%
    16:00 +23°C° 0 mm 2 mps 760 mmHg 69%
    17:00 +21°C° 0 mm 2 mps 760 mmHg 75%
    18:00 +20°C° 0 mm 2 mps 760 mmHg 81%
    19:00 +19°C° 0 mm 2 mps 760 mmHg 87%
    20:00 +19°C° 0 mm 2 mps 760 mmHg 88%
    21:00 +19°C° 0 mm 2 mps 759 mmHg 88%
    22:00 +19°C° 0 mm 2 mps 759 mmHg 88%
    23:00 +19°C° 0.4 mm 3 mps 758 mmHg 89%
    Show more